Theta_e
311 313 316 320 321 322 323 323 324 325 325 326 327 327 328 328 329 328 327 328 326 325 324 322 321 321 319 318 317 314 309 302 296 294 293 292 292 292 292 291 291 291 290 290 290 289 289 289 289 289 288 288 288 288 287 287 287 287 287 286 286 286 285 285 286 287 287 286 286 286 285 285 286 285 285 285 285 284 284 284 283 282 282 282 282
311 310 312 315 318 320 321 322 323 324 325 326 326 327 327 327 327 327 326 326 325 324 323 321 320 320 319 316 314 312 307 299 293 292 292 292 292 292 291 291 291 291 290 290 289 289 289 289 289 289 288 288 288 288 287 287 287 287 287 286 286 285 285 284 284 285 286 286 285 285 285 284 285 285 284 284 284 283 283 283 282 282 282 282 282
310 310 311 313 315 317 319 320 322 323 324 324 325 325 325 325 325 325 325 324 323 323 322 321 319 319 317 314 312 310 305 296 292 292 292 292 292 291 291 290 291 290 290 290 289 289 289 289 288 288 288 287 287 287 287 287 287 287 287 286 286 285 285 284 284 284 284 285 285 284 284 283 284 284 283 283 283 283 282 283 283 282 282 281 281
309 309 311 313 315 316 318 319 321 322 322 323 323 323 323 322 322 323 323 322 321 320 320 319 318 317 315 311 310 309 302 294 291 291 291 292 292 291 290 290 290 290 290 289 289 289 289 288 288 288 287 287 287 287 287 287 287 287 286 286 285 285 285 284 283 283 283 284 284 283 283 283 283 283 283 283 283 282 282 282 282 282 282 281 281
309 310 312 314 315 317 318 319 320 321 321 321 321 321 322 321 320 321 321 319 320 320 318 317 316 315 312 309 309 305 297 291 291 291 291 292 291 291 290 290 290 289 289 289 289 288 288 288 288 288 287 287 287 287 287 287 287 286 286 286 285 285 284 283 283 282 282 282 283 283 282 282 282 282 282 282 282 282 282 282 282 281 281 281 281
310 312 314 315 316 317 317 318 319 320 320 320 321 321 320 320 319 319 319 318 319 318 316 315 314 312 309 307 305 299 293 291 291 291 291 290 290 290 290 289 289 289 289 289 288 288 288 288 287 287 287 287 287 287 287 287 287 286 286 286 285 285 284 282 282 282 282 282 282 282 282 282 282 282 282 281 281 281 282 282 281 281 281 281 281
311 313 315 315 316 317 317 318 319 319 318 319 320 319 317 317 317 318 318 318 317 316 314 313 311 308 306 303 299 294 291 291 291 290 290 290 290 290 289 289 289 289 288 288 288 288 287 287 287 287 287 287 287 287 287 287 286 286 286 285 284 284 282 281 281 281 282 282 282 282 282 282 282 282 282 281 281 281 281 281 281 281 281 281 281
312 313 314 315 315 316 317 318 318 318 317 317 316 316 316 316 316 316 316 316 315 315 313 310 307 305 302 297 293 291 291 291 290 290 290 289 290 290 289 289 289 288 288 288 287 287 287 287 287 287 287 287 287 286 287 286 286 286 285 284 284 282 282 281 281 281 281 282 282 282 282 282 282 281 281 281 281 281 281 281 281 281 281 281 281
313 312 313 314 314 315 316 316 315 315 315 315 314 315 315 314 314 314 313 313 313 312 310 308 305 300 296 292 291 291 291 290 290 290 290 289 289 289 289 289 288 288 288 287 287 287 287 287 287 286 286 286 286 286 286 286 285 285 284 284 283 281 281 281 281 281 281 281 281 281 281 281 281 281 281 280 280 280 280 280 280 281 281 281 280
312 312 312 312 313 314 314 314 314 313 312 313 312 312 313 312 312 312 312 311 310 308 305 303 300 295 292 290 290 290 290 290 290 289 289 289 289 289 288 288 288 288 288 287 287 287 287 286 286 286 286 286 286 286 285 285 285 284 283 282 282 281 281 281 281 281 281 281 281 281 281 281 281 280 280 280 280 280 280 280 280 280 280 280 279
311 312 312 312 312 312 312 312 312 312 312 312 312 312 312 312 311 311 310 308 306 304 301 298 294 292 290 290 290 290 289 289 289 289 289 289 288 288 288 288 287 287 287 287 287 287 286 286 286 286 286 285 285 285 285 284 284 283 282 281 281 281 280 281 281 281 281 280 280 280 280 280 280 280 280 280 280 280 280 280 280 280 279 279 279
311 310 311 311 311 311 311 310 310 310 311 311 311 311 311 310 310 308 307 304 301 298 296 293 291 290 290 290 289 289 289 289 288 288 288 288 288 288 288 288 287 287 287 287 287 286 286 286 286 286 285 285 285 284 284 283 283 282 281 281 280 280 280 280 280 280 280 280 280 280 280 280 279 279 280 280 280 280 280 279 279 279 278 279 279
310 310 310 310 310 311 311 311 310 310 310 310 310 309 309 309 308 305 303 300 297 294 292 290 290 290 289 289 289 288 288 288 288 288 288 288 288 287 287 287 287 287 287 286 286 286 286 286 285 285 285 285 284 284 283 283 282 281 281 280 280 280 279 279 279 279 279 279 279 279 279 279 279 279 280 280 279 279 278 278 278 278 278 278 278
309 309 309 308 309 309 309 309 309 309 309 309 308 308 307 306 304 301 298 295 292 291 290 289 289 289 289 289 289 288 288 288 288 288 288 287 287 287 287 287 287 286 286 286 286 286 286 285 285 285 285 284 284 283 283 282 281 281 280 280 280 280 279 278 278 278 278 278 278 278 279 279 279 279 279 278 278 278 278 278 278 277 277 277 277
307 308 308 307 307 307 307 307 307 307 307 307 306 305 304 302 300 297 294 292 290 289 289 289 289 288 288 288 288 288 288 288 287 287 287 287 287 287 287 287 286 286 286 286 286 286 285 285 285 285 284 284 283 283 282 281 280 280 280 280 280 279 279 278 278 278 278 278 278 279 279 279 278 278 277 277 277 277 277 277 277 277 276 276 277
306 306 306 306 306 306 306 305 304 305 305 304 304 302 300 298 296 294 291 289 289 289 288 288 288 288 288 288 288 288 287 287 287 287 287 287 286 286 286 286 286 286 286 286 285 285 285 285 285 284 284 283 283 282 281 281 281 280 279 279 279 278 278 278 277 277 278 278 278 278 278 277 277 276 276 276 276 277 276 276 276 276 276 276 277
305 304 304 305 305 305 305 304 304 304 303 302 301 299 297 295 293 291 289 288 288 288 288 288 288 288 288 288 288 288 287 287 287 287 287 286 286 286 286 286 286 286 285 285 285 285 285 285 284 284 284 283 282 281 280 281 281 280 279 278 277 277 278 277 277 277 278 278 278 278 277 276 275 275 275 275 276 276 276 275 275 276 276 276 277
302 302 302 304 304 305 305 304 304 303 302 301 299 297 295 293 291 289 288 288 287 287 287 287 287 287 288 287 287 288 287 287 286 286 286 286 286 286 286 286 285 285 285 285 285 285 284 284 284 284 283 283 282 281 281 281 280 279 279 277 276 276 277 277 277 278 279 279 278 278 277 275 274 274 274 274 275 275 275 275 275 275 276 276 277
299 300 302 302 303 304 304 304 304 303 302 301 299 297 294 291 289 288 288 287 287 287 287 287 287 287 287 287 287 287 287 287 286 286 286 286 285 286 285 285 285 285 285 285 284 284 284 284 284 283 282 281 281 281 281 280 280 279 278 277 276 276 276 276 277 278 278 279 278 277 276 274 273 273 273 273 274 274 274 274 275 275 276 276 276
299 300 300 301 302 303 303 303 303 302 302 300 298 295 292 290 288 287 287 287 287 286 286 286 286 286 286 286 286 286 287 287 286 286 285 285 285 285 285 285 285 285 285 285 284 284 284 283 283 282 282 281 281 282 281 280 280 279 278 276 275 276 276 276 277 277 277 278 277 275 274 274 273 272 272 272 273 273 273 274 274 275 275 276 276
299 299 299 299 300 301 301 301 301 300 300 298 295 292 290 288 287 286 286 286 286 285 285 285 285 286 285 286 286 286 286 286 286 285 285 285 285 285 285 285 285 285 285 285 284 284 284 283 283 282 282 282 282 281 280 280 279 279 277 276 276 276 277 277 277 277 277 278 277 275 274 273 273 272 272 272 272 273 273 273 274 274 275 275 276
298 298 298 298 298 299 299 299 299 298 297 295 292 289 288 287 286 286 285 285 285 285 284 284 285 285 285 285 285 285 285 285 285 285 285 285 284 284 285 285 285 285 285 285 284 284 283 283 283 283 283 282 281 280 280 279 279 279 278 278 278 278 278 278 277 277 278 278 276 275 273 272 272 272 271 271 272 272 273 273 274 274 275 275 275
297 296 296 296 296 297 297 297 296 295 295 293 291 289 287 286 286 285 285 285 284 284 284 284 284 283 283 283 283 284 284 284 284 284 284 284 284 284 284 284 285 285 285 285 284 284 283 283 283 283 282 281 280 280 279 279 279 279 279 279 279 279 278 277 277 277 277 276 275 273 272 272 272 271 271 271 272 272 273 273 274 274 274 274 274
296 295 295 295 295 295 295 295 294 293 292 291 290 288 287 286 285 285 284 284 284 283 283 283 282 282 282 282 282 282 283 283 283 284 284 284 284 284 284 284 284 284 284 284 284 283 283 283 283 282 281 280 280 279 279 279 278 278 279 279 279 278 278 278 278 277 276 274 273 272 271 271 271 271 271 271 271 272 273 273 274 274 274 273 273
295 295 294 294 294 293 293 292 292 291 290 290 288 287 286 285 284 284 284 283 283 283 282 281 281 281 281 281 281 282 282 282 282 282 283 283 283 284 284 284 284 284 284 284 283 283 283 282 282 281 280 280 279 279 278 278 278 278 278 278 278 278 278 278 277 276 274 272 270 270 271 271 271 271 270 271 271 272 272 273 273 274 273 272 272
294 294 293 293 293 292 291 290 289 289 288 288 288 287 286 285 284 283 283 283 283 282 281 281 280 280 280 281 281 281 281 281 282 282 281 282 282 282 283 282 282 283 283 283 282 282 282 281 281 280 279 279 278 278 278 278 278 278 278 277 277 277 277 277 275 274 273 270 269 269 270 271 271 270 270 271 271 272 272 273 273 273 272 271 271
294 293 293 292 291 290 290 289 288 287 287 286 286 285 285 284 283 282 282 282 281 281 281 280 280 280 280 280 281 281 281 281 281 281 281 282 281 281 281 281 281 282 282 282 282 282 281 280 280 279 279 278 278 278 278 278 278 277 277 276 276 276 276 275 274 273 271 269 268 269 270 270 270 270 270 270 271 272 272 273 273 272 271 270 270
293 293 292 291 291 290 289 288 288 287 286 285 285 284 284 283 283 283 283 283 282 282 281 281 281 282 281 281 281 280 279 280 281 282 283 284 283 282 282 281 281 282 282 282 281 281 280 279 279 278 277 278 278 278 278 278 277 276 276 276 276 276 276 275 274 273 271 269 269 269 269 269 269 269 269 270 271 271 272 273 272 271 270 270 270
293 292 291 290 290 289 288 288 287 287 286 285 285 284 284 284 283 283 283 283 283 283 282 282 283 284 283 283 283 281 280 282 284 285 286 286 285 284 283 282 282 282 282 282 281 280 279 278 278 277 277 277 277 277 277 277 276 276 275 275 275 275 275 274 275 274 272 270 269 269 268 268 269 269 269 269 270 271 272 272 271 270 270 269 269
292 291 290 290 289 288 287 287 286 286 285 284 284 283 283 283 283 282 283 282 282 282 282 282 283 284 283 284 285 285 285 286 287 287 285 285 284 284 284 283 282 282 281 281 280 279 278 277 277 277 277 277 277 277 277 276 276 275 275 275 275 275 274 274 274 273 272 270 269 268 267 267 268 268 268 269 270 271 272 272 271 270 269 269 269
291 290 290 289 288 288 287 286 285 284 284 283 283 282 282 282 282 282 282 282 281 282 282 282 283 283 283 284 285 285 285 286 287 287 286 284 284 284 282 281 281 281 281 281 280 278 277 277 276 276 276 276 276 276 276 276 276 275 275 275 275 274 274 273 273 273 272 270 269 267 267 267 267 268 268 268 269 270 271 271 270 269 269 269 269
291 290 290 289 288 287 286 285 284 283 282 282 282 281 281 281 281 281 281 281 281 281 282 282 282 282 283 283 284 284 284 286 287 287 286 285 284 282 281 280 280 280 280 280 279 277 277 277 277 276 276 276 276 276 276 275 275 275 275 275 274 274 274 273 273 272 271 269 267 266 266 267 267 267 267 268 269 270 271 271 270 269 268 268 268
290 290 290 289 287 286 285 284 283 283 282 281 281 281 280 280 280 280 280 280 281 281 281 281 282 282 282 283 283 284 285 286 287 287 285 284 283 281 280 279 279 279 279 279 278 277 277 277 276 276 276 276 276 275 275 275 275 274 275 274 274 274 273 273 272 272 271 268 266 266 266 266 266 266 267 268 269 270 271 270 270 269 268 267 267
289 289 289 288 287 286 285 284 283 283 282 281 281 280 280 280 280 280 280 280 280 280 280 281 281 282 282 282 283 283 284 285 286 285 284 283 282 280 279 279 278 278 278 278 278 277 277 277 276 275 275 275 275 275 275 274 274 274 274 274 274 273 273 272 272 271 270 268 267 266 267 266 266 266 267 267 268 269 270 270 269 268 267 267 266
287 287 287 286 286 285 285 284 284 283 282 281 281 280 280 280 279 279 279 279 279 280 280 280 281 281 281 282 282 282 283 283 283 283 282 281 280 279 278 277 277 276 276 276 276 277 277 277 276 276 275 275 275 275 274 274 274 273 273 273 273 273 273 272 271 271 270 268 268 268 267 267 267 267 267 267 268 269 270 270 269 268 267 267 267
286 285 285 284 284 284 284 284 283 283 282 282 281 280 280 279 279 279 279 279 279 280 280 280 280 280 280 280 281 282 282 281 281 281 281 280 280 279 277 277 276 275 275 275 276 276 276 276 276 276 275 275 275 275 274 274 273 273 273 272 272 272 272 272 272 271 270 269 269 268 268 267 267 267 266 267 267 268 269 269 268 268 268 267 267
284 284 284 283 283 282 282 282 282 282 281 281 280 279 279 278 278 278 278 279 279 279 279 279 279 279 279 279 279 280 280 280 280 280 279 279 278 278 277 277 276 275 276 276 276 276 276 275 275 275 275 275 275 274 274 273 273 273 272 272 272 272 272 272 272 271 270 270 269 268 268 268 268 267 266 266 267 268 269 269 268 268 268 268 267
284 283 283 282 282 281 281 281 280 280 280 279 279 278 278 278 278 278 278 278 278 279 279 279 279 279 279 279 278 278 279 279 279 279 278 278 278 277 277 276 276 276 277 277 277 277 276 276 275 275 275 275 274 274 274 273 273 272 272 271 271 272 272 272 271 271 270 270 269 268 268 268 268 268 267 266 266 268 269 269 268 268 268 268 268
283 282 282 281 281 280 280 279 279 279 279 278 278 277 277 277 277 277 277 277 278 278 278 278 278 278 278 278 278 278 278 278 278 278 277 277 277 276 276 275 275 276 277 277 277 277 276 276 275 275 275 274 274 274 273 273 272 272 271 271 271 271 271 271 271 270 269 268 268 268 268 268 268 268 267 266 266 267 268 268 268 268 268 268 268
281 281 281 280 279 279 279 278 278 278 278 278 277 277 277 276 276 277 276 277 277 277 277 277 277 277 278 278 277 277 277 278 278 277 277 276 276 276 275 275 275 275 276 277 277 276 276 276 275 275 275 274 274 274 273 273 272 271 271 271 271 271 271 271 271 270 269 268 268 268 268 268 269 269 269 267 266 266 267 268 268 267 268 268 268
280 280 279 279 278 278 277 277 277 277 277 277 277 276 276 276 276 276 276 276 276 276 276 276 276 276 277 277 277 277 277 277 277 277 276 276 276 276 275 275 275 276 277 277 277 276 276 275 275 275 275 274 274 273 273 272 271 271 271 271 271 271 270 270 270 270 270 269 269 268 268 268 268 269 269 268 267 266 266 267 267 267 268 268 268
278 279 278 278 277 277 276 276 276 276 276 276 276 275 276 276 275 275 275 275 275 276 276 276 276 276 276 276 276 276 277 277 277 276 276 276 275 275 275 276 277 277 278 278 277 277 276 275 275 275 274 274 273 273 273 272 271 271 271 271 270 270 270 270 270 270 270 270 269 268 267 267 268 268 268 268 267 266 265 266 266 267 267 268 268
277 277 277 276 276 276 275 275 275 275 275 275 275 275 275 275 274 275 274 274 275 275 275 275 275 275 275 275 275 275 276 276 276 276 275 275 275 275 276 276 277 278 278 277 277 276 276 275 275 274 274 274 273 273 272 272 271 271 271 270 270 270 270 270 270 270 270 269 268 267 266 266 267 268 268 267 267 265 264 264 266 267 267 267 267
276 276 276 275 275 275 274 274 274 274 274 274 273 274 274 274 274 274 274 274 274 274 274 274 274 274 274 274 274 274 274 275 275 275 275 275 275 275 276 277 277 278 277 277 276 275 274 274 274 273 273 273 272 272 272 271 271 270 270 270 270 269 269 269 269 269 269 269 268 267 266 265 266 267 267 267 267 266 264 264 265 266 267 267 267
276 275 275 274 274 274 274 273 273 273 272 272 272 272 272 272 273 273 273 273 273 273 273 273 273 273 273 273 273 273 273 274 274 274 274 274 274 274 275 276 277 277 277 276 275 275 274 273 273 273 272 272 272 271 271 271 270 270 270 269 269 269 269 269 268 268 268 268 268 267 266 265 265 266 266 267 267 266 265 265 265 266 267 267 266
275 274 274 273 273 273 272 272 272 272 271 271 271 271 271 271 272 272 272 272 272 272 272 272 272 273 273 272 272 272 272 272 273 273 273 273 273 273 273 274 275 276 276 275 274 274 273 273 273 273 272 272 271 271 270 270 269 269 269 268 268 268 267 267 267 267 267 267 267 267 266 265 264 265 266 266 266 266 266 266 266 266 266 267 267
274 273 273 272 272 272 271 271 271 270 270 270 270 270 271 271 271 271 271 271 271 271 271 271 272 272 272 272 272 271 271 271 272 272 272 272 271 271 271 272 273 275 275 275 274 273 273 273 273 272 272 271 271 270 269 269 268 268 267 267 267 267 266 266 266 266 266 266 266 266 266 265 264 264 265 265 266 266 266 266 266 267 267 267 267
272 272 272 271 271 271 270 270 270 269 269 269 269 270 270 270 270 270 270 270 270 270 271 271 271 271 271 271 271 271 271 271 271 271 271 271 271 270 270 270 272 274 274 274 273 273 273 272 272 272 271 271 270 269 268 268 267 267 267 266 266 266 266 265 265 265 265 265 265 265 264 263 263 263 264 264 265 265 265 265 266 267 267 267 267
271 271 270 270 270 270 269 269 269 269 268 268 269 269 269 269 269 269 269 269 270 270 270 270 270 270 270 270 270 270 270 270 270 270 270 270 270 270 270 270 271 272 273 273 273 273 272 272 271 271 270 270 269 268 268 267 267 267 266 266 265 265 265 265 265 265 264 264 264 264 263 262 262 262 263 264 264 264 264 265 265 266 266 267 267
270 269 269 269 268 268 268 268 268 268 267 267 268 268 268 268 268 268 268 269 269 269 269 269 269 269 270 270 270 270 270 270 270 270 270 270 270 270 270 270 270 271 272 272 272 272 272 271 270 270 269 269 268 268 268 267 267 266 266 265 265 265 265 264 264 264 264 264 263 263 262 261 261 261 262 263 264 264 264 265 265 265 266 267 267
269 268 268 267 267 267 267 267 267 267 267 267 267 267 267 267 267 267 268 268 268 268 268 268 268 269 269 269 269 269 269 269 269 269 269 269 269 269 269 270 270 271 272 272 272 271 271 270 269 268 268 268 268 267 267 267 267 266 266 265 265 265 265 264 264 264 264 263 263 262 262 261 261 261 262 263 263 264 264 264 264 265 265 266 266
Wind_Speed
19 22 24 26 27 28 28 28 29 29 30 30 31 31 31 32 32 32 32 31 31 31 31 29 27 24 23 22 22 22 24 25 26 27 27 27 26 25 24 22 19 17 16 15 13 11 10 10 9 8 7 6 5 4 4 4 5 6 6 7 7 7 8 6 6 14 25 28 28 30 32 35 38 39 41 45 46 45 46 47 46 45 44 40 36
18 19 20 22 25 26 26 27 27 28 29 30 31 31 32 33 33 33 33 32 31 31 30 28 25 22 23 24 24 25 27 28 29 28 28 27 25 24 22 20 18 17 16 15 14 12 10 9 9 8 7 5 4 4 4 4 4 5 6 6 7 8 9 10 9 10 20 30 32 30 31 34 37 39 40 43 46 47 48 49 48 46 44 42 36
15 16 16 17 19 21 23 24 25 27 28 30 31 31 32 33 33 33 33 33 33 32 30 28 24 22 25 26 26 27 29 30 30 29 28 26 25 23 21 19 17 16 15 14 13 12 10 9 9 8 7 5 4 4 3 3 3 4 6 7 8 9 9 11 11 9 16 28 31 29 32 33 34 37 38 39 43 47 49 51 53 51 49 48 41
11 12 12 13 15 17 19 21 23 25 27 29 30 30 30 31 32 31 32 34 34 32 30 27 25 25 27 28 28 30 31 32 31 29 27 25 23 22 20 18 16 15 14 13 12 11 10 9 8 7 6 4 4 3 3 3 4 5 6 8 8 10 11 12 12 10 12 22 29 29 30 32 33 34 37 40 43 47 49 50 51 52 51 47 39
8 9 11 13 14 16 18 20 22 24 26 27 27 28 27 28 30 31 33 35 33 31 29 27 27 28 29 30 31 33 33 33 31 28 26 24 22 21 19 18 16 15 13 12 11 11 9 8 8 6 5 4 3 2 2 3 5 6 7 8 9 10 12 12 11 11 11 17 27 31 29 31 34 33 32 36 42 47 51 50 47 45 43 37 32
7 9 11 13 15 16 18 20 21 23 25 25 26 27 28 29 31 32 33 33 32 30 29 28 28 29 30 32 34 35 34 32 30 28 26 24 22 20 19 18 16 15 14 12 11 10 9 8 6 6 5 3 2 2 3 4 5 7 7 8 10 11 13 13 12 13 14 15 20 27 28 29 32 32 32 32 32 35 42 48 52 49 42 36 34
9 11 13 15 16 17 18 20 20 22 24 26 27 27 28 30 32 32 32 32 31 30 30 29 29 30 32 35 36 36 34 32 30 28 26 24 22 20 19 18 17 15 13 12 11 9 8 6 5 5 4 1 1 3 4 5 5 7 8 9 10 12 13 13 13 13 14 15 16 20 23 24 26 29 32 32 26 23 25 34 44 47 43 38 37
11 13 15 17 18 19 19 20 21 21 23 25 26 26 27 29 30 32 32 31 30 30 30 31 31 32 35 37 36 35 33 32 30 28 26 24 22 20 19 18 16 15 14 11 10 9 7 6 5 3 2 1 2 3 4 5 5 6 8 9 10 11 11 11 11 11 11 13 16 18 19 20 22 26 29 27 25 24 25 27 33 36 39 40 37
12 14 16 17 18 19 20 20 22 22 23 24 26 27 29 30 30 31 30 30 29 29 31 33 34 36 37 36 35 34 32 31 29 27 25 23 22 20 19 17 15 14 14 12 10 8 7 5 4 3 1 1 2 3 4 5 6 6 7 9 9 10 10 9 10 10 10 12 15 17 18 18 19 23 26 25 23 26 28 29 30 32 34 38 37
15 15 16 18 19 20 21 21 21 23 23 25 26 27 28 28 27 27 28 28 29 31 33 35 37 38 38 36 35 33 31 29 27 25 23 22 21 20 18 16 15 14 13 12 11 9 7 5 4 3 1 1 2 3 3 4 5 6 7 8 7 8 8 8 9 9 10 11 12 15 18 18 18 20 23 25 25 26 28 29 31 33 33 34 36
19 18 18 18 19 20 22 23 23 24 24 25 26 26 26 25 25 26 27 29 31 33 35 37 38 38 38 36 34 32 30 27 26 24 22 20 19 19 18 17 16 14 12 11 10 9 7 6 4 3 1 0 1 2 3 4 5 6 7 6 6 7 7 7 9 9 9 10 11 13 16 19 20 20 22 25 26 26 28 28 29 31 30 27 29
20 20 20 20 20 20 20 21 23 25 25 26 26 26 25 24 24 27 29 32 34 36 37 38 38 37 36 35 33 31 28 27 25 23 21 20 18 17 17 16 15 14 12 11 10 9 7 6 5 3 1 0 1 1 3 5 6 6 6 6 7 7 6 6 8 9 10 11 12 12 15 18 21 21 21 24 27 29 29 28 27 28 28 26 24
21 22 22 23 24 23 23 23 23 23 24 24 25 25 24 24 26 30 32 34 36 37 38 38 37 36 35 33 31 29 28 26 25 23 21 20 19 17 16 15 14 14 12 11 10 8 7 6 5 3 1 0 0 1 3 6 7 6 6 8 8 8 8 7 6 7 9 11 13 14 15 18 20 21 22 24 27 29 28 27 28 28 30 30 29
23 23 24 24 25 25 26 26 26 25 25 25 25 25 25 27 29 32 34 36 38 38 38 37 36 35 34 33 31 29 28 26 24 23 22 20 19 17 16 15 14 13 12 11 10 9 8 6 4 3 2 1 1 2 4 5 5 6 8 8 9 10 10 9 8 8 8 10 12 15 16 17 19 22 23 23 23 24 24 26 29 31 33 35 35
25 25 25 24 24 25 25 26 26 26 27 26 26 26 28 30 32 34 35 38 38 38 38 37 36 34 33 32 31 29 27 26 24 23 21 20 19 18 16 15 14 13 12 12 10 9 8 6 4 4 2 1 1 2 4 4 5 7 8 9 9 10 10 10 10 9 10 10 12 15 17 18 19 21 21 21 20 20 21 23 26 29 32 35 35
27 27 26 25 25 25 25 25 25 25 25 26 26 28 30 32 33 35 36 37 37 37 37 36 36 35 33 31 30 29 27 25 24 23 21 20 19 18 16 15 14 13 13 11 10 9 7 6 5 4 3 2 1 2 3 5 7 8 9 9 10 11 11 10 10 9 9 11 13 16 18 18 18 19 19 18 18 19 20 22 23 25 27 30 31
29 28 27 27 27 26 26 26 25 25 26 27 28 30 31 32 34 36 37 37 37 37 36 35 35 34 33 31 30 29 28 26 24 23 21 20 19 18 17 15 14 14 13 11 10 8 7 6 5 4 3 2 1 2 2 5 7 8 8 9 10 12 11 9 10 11 12 14 15 16 15 14 14 16 16 15 15 17 18 20 22 23 25 24 24
27 25 26 27 27 27 27 27 27 27 28 29 30 31 32 33 35 36 37 38 37 37 36 35 34 33 32 32 30 29 28 26 25 23 21 20 19 18 17 16 15 14 13 12 10 8 7 5 5 5 3 1 1 2 3 6 7 8 8 9 10 10 9 9 14 15 14 14 14 13 12 11 11 12 13 13 13 14 15 18 21 23 23 22 22
24 24 26 26 26 26 27 28 28 29 30 31 32 33 34 35 36 36 37 37 37 36 35 35 34 33 32 31 29 28 27 26 25 23 22 21 19 18 17 16 16 15 13 12 10 7 6 6 6 5 3 1 1 2 4 6 7 7 8 9 9 8 9 13 17 18 16 15 14 13 13 13 12 12 11 11 12 12 13 16 19 21 22 23 24
23 24 25 25 26 27 27 28 29 30 31 32 33 34 35 36 36 36 35 36 36 36 35 35 35 33 31 30 28 27 26 26 26 24 23 22 20 19 18 16 16 16 14 11 9 7 7 7 6 5 3 2 2 3 4 5 6 7 7 7 7 8 11 14 16 16 16 15 15 15 15 15 14 14 13 12 11 12 13 14 17 18 19 22 24
21 22 23 24 26 26 27 29 29 30 30 31 32 33 34 35 36 36 35 35 35 35 34 34 34 32 31 30 28 27 26 26 25 24 23 21 20 19 18 16 16 15 12 10 9 9 9 8 7 6 4 3 2 3 4 5 6 6 5 6 6 8 12 14 14 13 13 14 15 15 16 17 17 17 16 15 13 13 15 15 16 17 17 18 21
19 19 21 23 24 25 27 28 29 29 30 31 32 32 33 34 35 36 35 35 35 35 34 33 33 32 31 30 28 28 26 25 24 24 23 22 21 19 17 16 15 13 11 11 12 11 11 10 9 7 5 4 4 4 5 6 6 5 5 6 7 9 11 12 12 12 12 14 15 16 17 18 19 20 20 19 18 18 19 17 16 16 15 15 17
16 17 19 21 23 24 26 27 29 30 31 32 34 34 35 35 36 36 36 36 35 35 34 34 33 33 32 30 29 28 27 25 23 23 23 22 21 19 18 16 15 13 13 13 13 13 12 12 10 8 6 5 5 6 7 7 6 5 6 6 7 9 9 10 10 11 12 14 15 16 18 19 20 21 22 22 23 23 21 20 18 16 14 16 18
14 16 18 20 22 23 25 27 28 30 31 33 34 36 37 37 37 37 37 37 37 36 36 35 35 34 33 32 31 30 29 27 25 24 23 22 21 19 18 16 15 15 14 13 13 13 13 12 10 9 7 7 7 8 8 7 6 6 6 7 7 7 8 8 9 10 12 14 15 16 17 18 19 21 22 22 23 24 24 22 19 17 17 19 21
14 16 17 19 21 22 24 26 28 29 31 33 35 37 38 38 38 38 38 38 38 38 37 36 36 35 35 35 34 33 31 30 28 25 23 21 20 18 17 16 16 16 15 14 13 13 12 11 10 9 9 8 8 8 8 8 7 6 6 6 6 6 7 7 8 10 12 13 14 15 16 17 17 18 20 21 22 24 25 23 20 20 23 24 23
14 15 17 19 20 22 23 25 27 28 30 32 34 36 38 39 38 38 38 38 37 37 36 36 34 33 34 35 36 36 34 32 31 28 24 22 20 19 18 17 17 16 15 14 14 14 13 12 11 11 10 9 9 9 9 8 7 6 6 5 5 5 5 6 7 9 11 12 13 14 15 16 16 17 18 20 21 23 23 22 22 25 28 29 26
13 15 17 18 19 21 23 24 26 27 28 31 32 33 35 36 36 36 37 37 34 33 34 34 34 33 34 36 37 37 36 35 33 31 28 26 24 22 21 20 19 18 17 17 16 15 14 13 13 12 11 10 10 10 9 8 7 6 5 4 4 4 4 5 6 8 9 10 11 13 14 15 15 17 19 19 20 21 20 19 20 23 25 26 23
13 14 16 17 19 20 22 24 25 27 28 30 32 33 34 36 36 38 40 40 38 37 37 38 39 38 37 37 37 37 36 37 36 34 32 30 29 27 25 24 23 21 19 19 18 16 15 15 14 13 12 11 11 10 10 9 7 6 5 4 3 3 3 3 4 5 7 9 10 12 14 15 15 17 18 17 17 18 17 17 18 20 21 21 18
13 14 15 17 19 20 22 24 26 27 29 30 32 33 35 36 37 38 39 40 39 38 39 41 43 42 40 40 40 40 39 39 37 34 32 31 29 27 26 26 25 23 20 19 19 18 18 17 15 15 14 13 12 11 10 9 7 6 5 4 4 3 2 2 3 4 6 9 10 12 13 15 16 17 16 14 15 16 15 15 17 18 16 16 15
12 14 16 17 19 21 23 24 26 27 28 30 31 31 31 33 35 35 35 36 35 33 33 35 38 39 39 40 41 41 40 38 35 32 31 29 28 26 25 25 25 22 20 20 19 19 19 19 17 16 16 15 14 13 12 10 8 7 5 5 4 3 2 2 3 4 6 8 10 11 12 14 15 15 13 13 16 16 13 14 16 16 14 13 13
13 14 16 18 19 21 22 24 25 26 27 28 29 29 29 29 31 33 34 33 33 32 31 31 33 34 36 38 39 39 37 34 31 30 29 28 27 27 26 26 24 23 22 22 21 21 21 20 19 18 17 17 16 14 13 12 10 8 6 5 4 3 2 2 2 4 5 7 9 10 11 12 13 13 12 14 16 15 12 12 14 13 13 13 12
13 14 15 17 19 20 21 22 23 24 25 25 26 28 28 27 27 30 32 32 32 33 32 31 31 32 33 35 37 37 34 29 27 27 28 28 28 28 27 26 25 24 24 23 22 22 22 21 20 20 19 18 17 15 13 13 11 9 8 6 4 4 3 2 2 3 5 7 8 10 10 11 12 12 12 14 15 13 12 12 13 13 13 13 12
12 13 15 16 17 19 21 21 22 24 25 26 26 27 28 28 27 27 29 30 31 31 32 32 32 31 32 33 35 36 34 29 27 28 29 29 29 28 26 24 24 24 25 25 24 24 23 22 21 21 20 19 17 15 14 13 11 10 9 7 6 5 4 3 1 2 3 5 7 8 9 10 10 11 12 13 13 12 11 10 12 13 13 13 14
13 14 15 16 17 19 20 22 23 24 25 26 27 27 28 29 28 26 25 25 26 28 30 31 32 31 31 31 31 32 33 30 29 29 30 30 29 27 24 22 22 23 25 26 25 25 24 23 22 22 21 18 17 15 14 13 12 11 9 8 7 6 5 3 2 1 2 3 5 6 8 9 9 10 12 13 12 11 10 9 12 14 15 14 14
13 14 15 16 17 18 20 21 23 24 25 26 27 28 29 30 28 27 27 26 26 27 29 31 31 31 30 30 30 32 32 30 28 29 30 29 28 26 25 25 26 26 27 27 26 26 24 24 23 23 21 19 17 16 15 14 13 12 10 8 8 7 6 4 2 0 1 3 4 6 7 7 8 8 10 11 11 10 9 9 12 14 15 14 14
13 14 16 17 17 18 20 21 22 24 25 26 27 28 29 29 28 28 27 27 27 27 27 27 27 26 27 28 30 31 31 29 29 29 30 29 28 29 30 31 32 31 31 30 29 27 25 23 23 22 20 19 18 16 15 15 14 13 11 10 8 7 6 5 3 1 1 2 4 5 6 7 7 7 8 9 10 9 9 10 13 14 14 13 13
13 14 15 16 17 18 19 20 21 23 24 25 26 26 27 27 28 28 27 28 28 27 25 25 25 25 25 26 28 29 28 27 26 26 26 27 27 29 33 34 33 33 33 32 30 28 26 25 24 22 20 20 18 17 16 16 15 14 12 11 9 7 6 5 3 2 2 2 3 5 7 7 7 6 6 7 9 9 9 11 14 15 14 13 13
12 14 15 16 17 17 18 19 20 21 22 23 24 25 25 26 27 28 28 28 27 26 25 25 27 28 28 28 28 27 25 23 23 24 25 27 29 32 35 35 33 33 33 31 29 28 27 26 25 23 21 20 19 18 17 16 16 15 13 12 10 8 6 5 4 4 3 2 3 5 6 7 7 7 5 6 8 9 9 12 15 15 14 13 12
10 12 14 15 16 17 18 19 20 20 22 22 23 24 25 26 26 27 27 27 26 27 27 27 29 30 30 28 28 28 27 27 29 30 31 32 33 35 36 36 35 34 33 30 28 27 27 26 25 23 22 21 20 19 18 17 17 16 14 13 11 9 7 7 6 5 4 3 4 5 6 7 7 7 6 5 6 8 10 13 15 15 13 12 12
9 10 12 14 15 17 18 18 19 20 21 22 23 24 25 26 27 27 27 26 27 27 28 28 30 31 30 29 30 31 32 32 32 32 33 33 34 36 37 37 38 37 35 32 30 28 28 27 26 24 23 23 22 20 19 18 18 17 16 14 13 11 9 8 8 7 5 5 5 5 5 6 7 8 7 6 5 7 10 13 15 14 12 11 11
9 10 11 12 14 16 17 18 20 21 21 22 23 24 25 26 27 27 27 27 28 28 28 29 31 30 29 30 32 33 34 34 32 31 33 34 36 38 40 40 40 38 37 35 32 30 28 28 27 25 24 24 23 21 20 19 19 18 17 15 14 13 12 10 9 8 8 7 6 5 5 6 7 8 8 8 6 6 9 12 14 13 11 10 10
9 10 11 12 13 14 16 18 19 20 21 22 23 24 25 26 26 26 27 28 28 28 28 29 29 29 29 31 31 33 35 35 33 32 34 36 38 39 41 42 41 39 37 36 33 31 29 28 27 26 26 25 24 23 22 21 20 19 18 17 15 14 13 12 11 10 9 9 8 7 6 6 7 7 8 9 8 7 9 12 13 12 10 9 9
9 10 11 12 13 14 16 17 18 19 21 22 23 24 25 25 26 26 26 27 27 27 28 28 28 27 28 30 30 32 35 37 36 36 37 38 39 41 43 43 42 40 38 36 33 30 28 28 27 27 26 25 24 23 22 20 20 19 18 18 17 16 15 14 13 12 11 11 10 9 7 7 7 7 8 9 9 9 10 13 13 11 9 8 8
9 10 11 13 14 15 16 16 17 19 20 21 22 23 24 24 26 26 26 27 27 27 28 29 28 26 28 29 30 32 37 39 40 40 40 40 42 43 44 44 42 41 39 36 33 30 29 29 28 27 27 25 24 23 22 21 21 20 19 18 18 18 17 15 14 13 13 12 12 11 9 9 9 8 7 8 10 10 12 13 13 11 9 8 8
10 11 12 13 14 15 16 16 17 18 19 20 22 23 23 24 25 26 26 27 28 27 28 29 28 27 28 29 30 34 38 40 40 42 42 43 43 44 45 44 43 41 39 37 34 32 31 30 29 29 28 27 26 24 23 22 22 21 20 19 19 19 17 15 14 14 14 14 14 13 11 11 11 9 8 8 9 11 12 14 14 12 10 8 8
10 11 12 13 14 16 16 17 17 18 19 20 22 23 23 24 25 26 27 27 28 28 28 28 28 28 29 30 32 34 37 38 39 41 42 42 43 43 43 44 43 42 39 37 35 33 32 31 31 30 29 28 26 25 24 23 23 22 21 21 20 19 17 15 15 16 15 15 15 14 13 13 12 11 9 9 9 11 12 14 14 13 10 8 8
12 12 13 14 15 16 17 17 17 18 19 20 21 22 23 24 24 25 27 27 27 28 29 28 28 29 30 31 33 34 35 36 38 39 39 40 41 41 41 42 42 41 38 36 34 33 32 32 31 30 29 28 26 25 25 24 23 23 22 21 20 19 18 17 17 17 16 16 16 15 14 14 14 13 11 10 10 11 12 13 13 13 11 9 9
13 13 14 15 16 17 18 18 18 19 20 20 21 22 23 24 24 25 26 26 27 28 29 29 29 30 30 31 33 34 34 35 36 37 37 38 39 39 40 41 41 39 37 36 35 34 33 32 31 30 29 27 26 26 25 24 24 23 22 22 21 20 19 19 19 19 18 17 17 16 15 16 16 15 13 12 11 11 12 13 13 13 12 11 9
14 14 15 16 17 18 18 18 19 20 20 20 21 22 23 23 24 25 26 26 27 28 28 29 30 30 30 31 32 33 33 34 35 36 36 37 37 39 40 41 40 39 37 37 35 34 33 32 31 30 28 27 27 26 25 24 24 23 23 22 21 20 20 20 20 20 19 19 19 18 18 17 17 17 16 14 12 12 13 14 14 13 12 11 9
15 15 16 17 18 18 19 19 20 20 20 21 22 23 23 24 25 25 25 26 27 28 28 29 30 30 31 32 32 32 33 34 35 36 36 36 37 38 40 40 39 39 38 36 35 33 33 32 30 29 28 27 26 25 25 24 24 23 22 22 21 21 21 21 21 20 21 21 21 20 19 18 19 19 18 15 13 12 13 13 13 13 12 11 10
16 16 17 18 18 19 19 20 20 21 21 21 22 23 23 24 24 25 25 26 27 27 28 28 29 30 31 32 32 33 33 34 34 35 35 35 37 38 39 39 39 39 38 36 34 33 33 31 29 28 27 26 25 25 24 24 24 23 22 22 22 21 21 21 21 21 21 21 22 22 21 20 21 22 20 16 14 13 13 14 13 13 12 11 10
Wind_Direction
235 235 235 234 233 232 232 231 229 229 228 227 227 226 225 223 221 220 214 210 208 202 198 197 195 198 203 203 202 199 190 181 174 170 168 166 166 165 165 169 171 167 164 163 160 162 165 159 155 151 149 148 140 118 89 62 41 32 23 12 7 358 347 336 289 293 312 324 327 328 332 335 337 340 340 339 341 341 340 338 337 337 337 335 333
237 235 234 234 233 231 231 230 228 227 226 225 224 223 222 219 218 216 210 206 203 200 199 197 195 199 203 202 199 193 186 179 174 172 171 169 169 169 169 172 172 167 166 164 161 164 165 161 156 151 150 146 129 104 76 58 36 15 7 5 0 355 350 342 326 302 309 320 327 331 335 336 337 339 341 339 339 339 338 337 337 336 335 335 332
243 241 237 236 235 232 230 228 226 225 223 221 220 219 218 216 213 211 206 201 197 196 198 196 197 204 203 198 195 189 183 178 175 175 175 174 172 170 170 174 175 171 169 167 164 164 164 161 157 150 146 138 117 95 67 45 27 8 1 1 359 352 349 345 338 317 308 317 325 330 333 336 336 337 339 338 337 337 336 337 338 337 336 336 333
245 240 234 234 233 230 229 226 224 222 219 218 217 215 215 212 208 206 203 198 192 192 194 195 198 202 198 194 191 185 181 178 175 176 178 178 176 173 171 173 175 172 170 167 164 164 165 163 158 149 143 138 118 100 78 29 8 13 4 357 357 350 344 345 341 329 312 313 319 326 332 335 336 337 339 339 337 336 336 336 336 335 335 335 332
240 232 226 227 227 225 224 222 220 219 216 215 214 212 212 210 205 203 199 193 189 190 192 195 199 198 194 192 187 182 180 177 176 177 179 179 178 175 173 174 173 170 168 167 164 164 166 164 157 147 147 146 127 103 63 27 8 8 3 354 352 348 345 348 346 338 322 310 317 326 332 334 335 337 340 340 337 337 337 335 333 331 329 329 328
230 225 222 223 223 222 219 215 215 216 213 213 213 212 211 207 202 198 196 191 188 190 193 195 196 195 192 188 183 179 178 177 177 178 178 178 178 177 175 173 172 170 167 166 165 165 165 162 153 147 154 162 122 80 31 22 8 357 358 354 349 351 354 355 352 344 331 315 315 324 330 334 334 333 337 339 335 333 335 333 331 330 327 325 327
226 221 220 220 219 218 216 215 215 217 214 211 211 210 206 201 195 191 192 192 191 191 193 193 193 192 187 183 180 178 178 178 179 180 179 179 179 177 175 174 171 169 167 166 164 163 161 156 153 155 159 154 67 49 19 10 5 353 353 354 354 360 2 357 352 346 335 324 319 321 325 329 329 327 331 337 334 330 332 329 326 327 327 326 328
227 222 217 216 216 213 214 216 214 214 213 208 204 201 196 193 191 189 190 192 193 194 194 191 188 186 183 180 178 178 179 179 181 181 180 180 179 178 177 175 171 167 165 164 162 160 159 158 162 167 155 93 31 23 8 1 2 356 354 360 5 6 4 356 349 343 335 327 323 320 321 324 325 324 327 335 337 332 332 327 319 320 323 323 326
223 224 217 213 215 213 211 212 209 206 205 202 197 194 191 189 188 189 189 191 193 194 193 189 184 180 178 178 178 179 181 181 182 183 182 180 179 178 176 173 171 168 165 163 162 161 163 167 166 165 156 51 19 9 2 356 359 5 6 9 11 5 358 353 345 340 335 329 323 320 320 321 324 326 327 332 333 327 326 326 319 318 321 320 320
214 220 221 215 212 211 207 206 206 202 199 196 192 189 187 187 187 189 191 193 194 191 188 184 181 179 177 177 179 180 182 182 182 184 184 182 180 177 174 171 169 169 167 164 164 164 166 171 172 169 165 35 21 4 3 358 360 15 22 18 11 359 352 347 341 334 328 323 320 320 318 315 320 325 322 322 325 325 325 326 322 321 324 321 320
214 215 219 217 212 208 203 200 199 197 193 190 188 187 187 189 192 195 195 194 192 188 184 180 179 179 178 178 179 180 180 181 181 181 182 182 181 178 174 171 168 167 168 166 167 169 170 173 177 173 168 70 14 7 10 6 10 27 32 19 3 355 352 342 332 327 321 315 313 314 311 309 316 321 320 320 324 325 325 324 322 321 323 321 318
219 216 214 214 211 208 206 202 196 194 192 191 191 192 193 196 200 200 196 191 187 183 181 179 179 179 179 179 179 178 179 180 180 180 179 178 180 180 176 172 169 166 167 169 170 171 173 176 178 175 173 305 7 19 12 12 25 35 24 3 357 4 7 349 327 319 314 309 306 307 307 308 313 318 321 323 323 323 323 322 321 319 317 315 312
219 220 216 214 212 210 211 210 205 202 201 200 199 198 200 203 202 197 191 186 183 180 179 179 179 179 179 179 178 178 179 180 180 179 179 177 177 178 176 172 170 168 168 171 172 173 176 176 173 174 188 268 343 24 10 15 26 23 3 358 4 11 13 2 340 322 313 307 303 304 307 308 310 314 320 322 321 321 322 320 319 318 315 312 311
215 219 219 217 215 212 211 211 210 210 209 207 206 205 206 203 197 192 188 183 181 179 179 179 179 179 180 179 178 179 179 180 180 179 179 177 176 177 176 172 170 170 169 170 172 174 177 176 178 190 207 227 265 360 6 14 14 357 353 3 8 8 7 360 352 344 334 322 308 304 306 307 307 310 316 320 319 317 317 317 318 317 312 309 308
216 217 217 217 216 214 212 209 208 208 206 206 207 206 203 198 192 189 186 183 181 180 180 180 180 179 180 180 179 179 180 180 180 180 179 177 176 176 176 173 172 172 171 172 174 175 175 178 186 197 201 221 292 1 4 357 347 344 354 5 3 3 2 357 355 353 342 327 310 304 305 307 308 311 314 316 315 313 312 311 311 311 309 307 307
218 217 215 215 215 213 212 209 206 206 205 205 205 203 198 194 191 188 185 182 182 182 181 182 182 180 180 181 180 179 180 180 180 180 180 178 177 176 176 175 174 173 172 173 174 174 177 181 184 189 196 220 308 15 2 334 332 340 354 0 354 355 2 4 2 352 330 316 306 300 300 302 307 310 311 314 315 315 314 312 312 313 312 309 309
219 216 215 215 214 214 213 211 210 209 208 206 203 199 196 194 191 187 184 182 182 183 183 182 183 182 181 182 182 181 180 180 181 182 181 179 178 177 177 176 175 175 174 174 175 177 180 180 182 193 205 217 329 14 339 318 327 339 349 351 347 354 7 5 348 338 328 318 309 304 305 310 314 313 313 316 319 320 319 315 317 319 315 311 311
218 216 217 217 215 214 214 213 213 212 209 206 203 199 197 194 191 189 187 185 184 184 184 182 182 184 184 184 186 185 183 181 183 183 181 180 181 180 179 177 176 177 176 175 178 180 180 184 193 203 211 229 338 339 317 317 327 336 342 345 349 360 5 343 331 334 334 327 321 324 334 340 336 329 325 321 320 324 321 315 317 319 314 311 314
220 219 220 220 218 217 215 214 215 213 210 208 205 202 199 195 192 190 189 188 186 184 184 183 182 183 185 186 187 188 187 184 184 185 182 181 182 182 181 180 179 179 178 178 180 182 188 199 203 203 212 251 298 311 313 315 322 330 337 344 355 3 348 330 329 333 333 333 338 348 355 356 353 349 342 329 322 325 324 317 317 317 312 312 315
227 225 224 222 220 220 218 216 216 215 212 210 206 203 200 195 192 190 189 189 187 185 185 185 183 182 184 186 187 190 191 188 185 185 184 183 183 183 184 183 183 181 180 180 184 190 198 204 203 205 222 236 258 298 304 302 309 320 335 350 358 350 331 325 327 328 328 338 351 357 358 358 356 356 351 338 326 324 326 324 319 314 310 311 315
230 228 226 224 222 221 220 218 218 216 213 209 205 201 199 195 192 190 189 188 186 184 183 184 183 182 184 187 189 191 194 193 188 185 184 184 184 185 186 185 185 184 182 184 193 200 203 203 204 208 218 226 242 270 278 284 295 309 327 344 343 328 320 320 324 326 333 348 357 357 358 358 355 357 353 340 330 329 334 334 327 319 313 312 316
231 229 227 225 223 221 220 218 217 214 212 208 203 199 197 196 194 191 189 187 185 183 183 182 183 183 183 187 190 190 192 195 191 186 186 187 186 186 188 187 186 187 188 192 198 202 203 205 208 212 214 217 233 250 260 272 284 296 311 321 319 316 315 317 324 333 345 356 358 357 359 357 354 355 351 342 340 344 344 339 332 326 321 317 319
232 230 227 225 223 222 220 217 215 213 210 207 204 200 197 196 194 192 190 187 184 183 182 183 183 183 183 186 189 190 190 192 192 189 188 188 187 188 189 189 190 194 198 200 201 202 203 205 207 210 209 212 228 243 252 264 276 286 299 307 310 312 314 317 328 341 351 358 359 356 357 357 353 351 347 344 347 350 346 339 337 337 334 329 329
229 228 227 226 224 222 220 217 215 213 210 207 203 199 197 195 193 193 191 188 184 183 183 184 183 183 183 185 187 189 190 190 192 192 190 189 190 191 192 193 195 197 200 201 201 200 203 205 204 204 206 211 226 240 248 257 268 276 286 297 302 306 311 320 335 347 355 0 358 352 353 356 352 347 343 345 348 349 344 339 340 345 344 341 345
223 225 225 224 223 222 219 217 215 213 210 207 203 200 197 194 192 192 191 188 187 185 184 185 185 185 185 186 188 190 191 191 191 191 190 190 192 193 195 198 199 199 198 201 202 202 203 204 202 201 205 213 225 236 243 250 258 265 275 287 294 302 313 326 342 353 358 359 352 346 349 353 350 344 344 347 351 351 347 342 343 348 348 349 355
222 222 223 224 223 220 218 215 214 213 211 210 207 204 200 196 193 191 190 190 190 188 186 186 187 187 188 191 191 191 191 192 191 189 188 189 192 194 196 198 199 199 197 199 201 202 201 201 201 203 207 215 224 231 236 242 249 256 265 275 285 300 318 334 350 359 359 353 346 343 346 349 347 346 350 353 355 355 350 344 345 349 349 349 353
221 222 223 223 221 219 217 215 213 212 211 210 208 207 204 200 196 193 192 192 191 191 189 189 189 190 193 195 194 192 192 193 192 190 189 191 192 194 195 197 198 198 197 199 201 201 199 199 201 204 208 215 221 225 232 237 240 244 252 262 276 297 322 343 357 360 354 346 342 343 347 347 346 350 355 356 355 355 352 348 348 348 347 346 344
221 224 225 224 222 220 219 217 215 214 212 211 210 209 207 205 202 201 200 198 196 195 195 195 195 197 197 196 194 192 194 196 196 196 197 197 196 197 198 199 201 202 201 200 199 196 196 199 201 202 207 214 218 221 227 228 227 230 238 246 262 282 306 338 357 356 349 346 348 350 350 348 349 355 358 352 347 350 353 353 352 348 345 344 341
218 224 224 224 224 222 219 220 219 217 215 214 213 214 213 211 209 210 209 206 204 203 202 203 203 203 202 200 197 195 196 201 203 204 206 204 203 204 206 206 206 204 202 200 198 195 195 196 199 202 205 210 213 216 219 221 219 218 220 230 249 267 289 320 345 353 352 352 355 354 349 347 352 359 356 343 340 349 354 354 352 349 345 343 339
215 221 223 224 225 223 221 221 221 219 218 217 215 215 217 217 216 216 215 214 212 212 212 212 212 210 208 208 207 205 207 209 208 206 206 206 208 212 214 212 208 204 200 198 199 198 196 195 197 202 205 208 210 211 212 213 215 215 214 220 234 249 282 315 339 355 357 358 358 352 344 346 354 358 348 338 342 349 351 352 353 351 347 343 336
216 221 226 227 228 227 225 224 222 220 220 220 217 216 217 220 222 222 222 221 219 220 221 221 221 218 216 215 213 212 213 213 211 208 208 208 210 213 213 209 205 202 202 202 200 199 198 197 198 201 205 207 209 210 210 210 210 212 215 222 230 238 262 297 330 356 1 2 357 349 346 353 358 353 342 340 345 346 345 351 354 350 347 345 336
225 229 233 234 233 231 229 227 225 223 221 221 220 219 218 219 223 224 226 226 225 225 226 226 226 225 223 221 217 213 213 213 213 212 211 211 212 212 210 206 202 201 204 205 203 201 201 200 201 202 205 208 209 209 211 213 212 210 210 216 229 237 243 269 320 357 8 3 350 344 350 359 357 348 343 345 345 340 338 348 354 350 347 345 341
236 239 240 239 236 234 232 230 228 227 225 223 222 220 218 219 221 223 225 227 229 230 230 229 229 228 227 225 222 218 217 218 217 214 212 212 211 207 203 201 199 199 202 203 202 203 203 202 204 206 207 209 210 209 213 216 217 214 210 208 217 230 233 241 284 357 15 2 344 341 352 358 354 347 350 353 348 336 332 342 349 351 349 346 344
243 244 245 244 240 238 236 234 232 232 230 227 225 223 222 222 223 223 223 223 226 230 231 231 231 230 229 228 224 220 220 222 221 216 211 208 205 200 195 192 193 199 206 208 207 206 205 204 206 208 208 209 210 210 213 218 219 220 218 214 215 224 229 227 231 10 15 355 344 345 352 358 358 352 351 353 348 334 328 337 345 348 351 348 343
245 245 246 247 245 244 242 240 238 235 233 231 229 227 227 226 225 224 223 222 222 225 228 228 228 228 229 227 222 219 219 220 218 212 206 203 200 193 189 188 189 195 205 210 211 210 208 207 208 209 209 210 211 211 213 218 220 222 224 225 225 227 227 224 220 347 356 341 346 350 352 358 5 1 352 348 341 327 323 333 339 343 350 350 343
252 250 249 249 249 249 248 247 244 241 238 237 235 233 231 228 226 226 226 227 227 228 228 227 225 224 226 225 222 219 217 214 211 207 204 202 197 191 191 194 195 197 204 209 211 211 210 210 211 211 210 211 213 213 214 218 222 224 225 227 229 232 233 232 230 252 317 332 342 347 350 358 8 9 359 348 333 317 313 325 333 340 350 353 346
262 260 257 256 255 254 253 251 249 247 245 243 240 237 234 231 230 229 229 230 231 231 230 227 222 219 219 220 218 214 210 208 206 204 201 199 196 197 201 204 204 205 209 211 211 210 210 211 211 211 212 213 214 214 213 215 221 225 227 229 229 231 237 240 239 250 281 317 335 338 345 357 7 12 5 347 328 313 308 319 329 337 348 353 348
270 268 265 263 261 258 256 255 253 250 248 246 243 239 237 235 233 232 232 233 233 232 230 227 222 217 216 216 212 207 202 199 197 197 198 198 198 202 208 211 211 212 216 217 214 212 212 213 213 212 213 214 214 214 214 215 218 223 228 231 232 232 235 239 238 248 268 297 323 328 336 350 4 14 14 350 326 310 306 317 326 332 342 351 348
278 275 271 267 264 261 259 258 255 252 249 246 244 242 240 238 237 235 235 236 236 234 231 229 226 222 220 217 210 202 197 197 197 198 200 201 203 206 210 212 214 217 220 221 219 216 215 215 215 214 214 214 214 214 214 215 217 221 226 231 234 235 235 238 241 247 260 280 304 319 331 345 359 11 15 359 329 307 302 312 323 328 334 342 345
289 284 279 273 268 265 263 260 257 254 251 248 246 243 241 240 239 239 238 238 238 237 235 232 231 228 225 220 212 204 201 203 205 205 204 204 206 210 213 215 216 219 221 222 221 220 218 218 217 216 216 215 215 215 216 215 216 220 224 228 232 236 237 240 245 249 257 270 286 307 328 341 353 4 9 2 337 306 298 306 317 324 328 334 339
299 292 286 280 274 268 264 260 258 256 254 253 250 248 245 244 243 242 241 240 240 240 239 238 238 235 231 227 221 214 211 212 214 212 211 211 212 215 217 219 220 221 222 223 223 221 220 220 220 219 218 217 216 216 216 216 217 220 223 226 230 234 237 240 245 250 256 266 275 291 318 336 346 356 359 356 343 314 298 301 310 318 325 330 332
303 297 293 287 280 272 266 263 262 260 258 255 253 251 250 250 249 246 245 244 243 243 243 243 243 240 237 234 229 223 221 222 222 220 220 220 219 221 223 225 225 224 224 224 224 223 222 222 222 222 220 219 218 218 217 218 220 222 225 227 230 233 236 240 244 249 255 261 268 280 302 324 336 346 350 350 343 323 303 300 305 311 319 326 327
301 298 294 288 282 277 273 270 268 264 260 258 257 257 255 253 252 250 249 248 247 246 246 246 246 243 240 238 234 229 227 227 227 227 226 226 225 227 229 230 230 228 226 225 225 224 224 224 225 225 225 224 224 223 222 222 224 225 227 229 232 233 236 238 241 246 252 257 263 273 287 304 319 333 342 343 340 327 307 300 302 308 314 319 320
305 300 294 289 286 282 278 275 272 268 266 265 263 261 259 256 254 253 251 251 250 249 248 248 248 246 243 239 233 229 228 229 229 230 230 229 230 231 232 232 232 230 226 224 222 222 221 222 224 226 226 226 226 226 226 227 228 229 230 232 233 235 237 238 241 244 248 253 258 266 277 290 301 314 329 335 334 326 311 301 302 308 314 316 316
310 302 295 291 288 284 281 279 276 273 271 269 265 263 260 258 256 254 253 253 253 252 252 251 249 247 244 240 234 231 231 231 232 232 232 232 232 233 233 233 232 230 225 222 220 219 219 220 222 224 226 226 226 227 228 230 232 233 234 235 237 240 241 241 242 244 245 249 254 259 267 278 288 299 312 323 326 321 310 302 302 307 311 311 310
310 303 297 293 289 286 285 283 280 277 273 269 267 265 263 260 259 257 256 255 255 255 255 254 252 249 246 243 239 237 236 236 235 236 236 235 235 235 234 234 233 230 226 222 221 220 220 221 223 224 226 227 228 229 231 233 235 236 238 238 241 244 245 245 245 246 246 249 252 254 259 268 277 287 298 307 314 314 308 303 301 303 306 305 302
310 305 299 294 290 287 286 283 281 278 275 271 268 267 266 264 263 261 259 258 258 257 256 256 254 251 249 246 244 242 241 240 240 240 239 239 237 237 236 235 234 231 226 222 221 221 222 223 224 225 226 228 229 230 233 235 237 239 241 242 243 246 247 247 248 249 250 250 251 253 256 262 269 278 286 293 300 305 305 303 300 299 300 299 295
308 304 299 295 291 287 286 284 280 277 275 273 271 270 268 267 266 264 262 261 260 258 257 257 255 253 252 250 248 247 245 244 244 243 242 241 240 238 237 237 235 231 226 222 220 221 222 223 225 226 227 229 230 232 234 237 239 242 244 245 246 248 248 248 249 251 251 252 253 253 253 256 263 271 276 281 290 297 299 299 297 294 293 292 288
305 301 298 295 291 287 286 285 282 279 277 276 274 273 271 269 268 266 265 264 262 260 259 258 257 256 254 253 252 250 248 247 246 245 243 242 241 240 239 238 236 231 226 223 222 222 223 225 225 226 228 230 232 234 237 240 243 245 247 248 249 250 248 248 249 250 250 251 252 251 250 251 258 265 268 271 278 287 291 292 292 289 286 285 281
303 300 297 294 291 290 289 286 283 281 280 277 276 274 274 272 270 269 268 266 265 263 262 260 259 258 257 255 254 253 251 249 248 247 245 243 241 241 240 238 235 230 226 224 224 225 226 226 226 226 228 230 233 237 240 244 247 249 251 251 252 251 250 249 249 248 247 248 249 248 247 248 254 260 262 263 269 277 283 286 288 286 281 278 275
301 300 297 294 292 292 290 287 285 284 282 280 278 277 276 275 274 273 271 270 268 267 266 264 262 261 259 258 257 255 254 252 251 249 247 245 243 242 241 239 235 229 225 224 225 226 227 227 227 227 228 231 234 239 243 246 249 252 253 253 254 253 251 250 249 248 247 247 247 245 243 244 250 255 256 256 260 269 277 281 283 283 280 276 270